User: anonymous   Login
Location: Unspecified
(0.0000°N, 0.0000°E)
Time: 07:04:06
(UTC+00:00)
Language:

NOSS 2-2 (D) - Orbit

View from above orbital plane
View from above orbital plane
View from above satellite
View from above satellite

Ground track
Ground track

The orbit data is extracted from the following two-line orbital elements,

1 21808U 91076D   19045.75306177 0.00000150  00000-0  37273-4 0    02
2 21808  63.3375 329.4289 0798000  32.0556 327.9444 13.41239470    07
Epoch (UTC): 14 February 2019 18:04:24
Eccentricity: 0.0798000
inclination: 63.3375°
perigee height: 507 km
apogee height: 1702 km
right ascension of ascending node: 329.4289°
argument of perigee: 32.0556°
revolutions per day: 13.41239470
mean anomaly at epoch: 327.9444°
orbit number at epoch: 0

The dashed part of the orbit path shows where the satellite is in the earth's shadow,  

DLR